Location: Tamazert
(32.6352°N, 5.2072°W)
Time: 05:18:29
(UTC+00:00)

Vanguard 1 Rocket - Pass Details

Date: 05 October 2022
Orbit: 650 x 4225 km, 34.3° (Epoch: 04 December)

Event Time Altitude Azimuth Distance (km) Brightness Sun altitude
Rises 18:25:55 0° 236° (WSW) 8,446 13.4 -6.2°
Reaches altitude 10° 18:31:54 10° 235° (SW) 7,414 13.0 -7.4°
Maximum altitude 18:56:57 72° 156° (SSE) 3,373 10.1 -12.7°
Enters shadow 19:09:51 17° 77° (ENE) 4,327 10.2 -15.4°
Drops below altitude 10° 19:11:28 10° 76° (ENE) 4,663 - -15.8°
Sets 19:14:15 0° 74° (ENE) 5,311 - -16.4°
